Погода в Фёдоровском

Россия / Владимирская область     56°07′02″N   38°51′08″E
темп.,
°C
ветер,
м/с
пор.,
м/с
влажн.,
%
обл.,
%
осадки,
мм/ч
давл.,
гПа
погр.,
м
19 апреля, пн
пн1900:00+6всв41083100 0.0 1024482
03:00+6всв51089100 0.3 1024644
06:00+4св51086100 0.1 1024527
09:00+6всв5970100 0.1 1025690
12:00+8всв685999 0.0 10251183
15:00+8всв5757100 0.0 10251358
18:00+8всв5956100 0.0 10241467
21:00+5в51052100 0.0 10251027
20 апреля, вт
вт2000:00+4всв51155100 0.0 1025916
03:00+3всв51160100 0.0 1024737
06:00+2в51171100 0.0 1023686
09:00+1всв51294100 0.6 1023574
12:00+3в51092100 0.4 1022741
15:00+3в51296100 1.3 1021868
18:00+2в51296100 0.1 1019769
21:00+3в61497100 1.5 1016941
21 апреля, ср
ср2100:00+3в71796100 6.1 10101088
03:00+3в71697100 13.9 10071097
06:00+4вюв71594100 1.9 1003900
09:00+5вюв61595100 2.4 1002852
12:00+6вюв61394100 2.7 1000834
15:00+7ююв41097100 3.4 1000688
18:00+3юз61397100 0.8 1006971
21:00+4ююз51188100 0.9 10101101
22 апреля, чт
чт2200:00+4ю51191100 0.0 1011660
03:00+4ю41192100 0.1 1012528
06:00+4ю41093100 0.1 1013587
09:00+6ююз51083100 0.1 1015953
12:00+9юз5865100 0.1 10161383
15:00+11юз585889 0.4 10161666
18:00+11ююз376470 0.0 1017284
21:00+6ююв398654 0.0 1018175
23 апреля, пт
пт2300:00+6ююв3109574 0.0 1017215
03:00+5ююв399751 0.0 1017208
06:00+5ююв399715 0.0 1017251
09:00+11ю477582 0.1 1017578
12:00+15ю69577 0.1 10161496
15:00+16ююв6105618 1.8 10142042
18:00+13ююв7136463 0.8 10131282
21:00+11ююв61473100 1.0 1012803